Notices

What's New in latest Release from April 7th, 2021:

- Updated Glossary, including Speed of Maximum Gust, and Total Hourly Precipitation

- Updated national and regional climate services offices contacts and prices information

- Addition of station inventory lists for 1981-2010, 1971-2000, and 1961-1990 Normals.

If you haven't already, please take our survey and provide feedback about our website: https://eccc.sondage-survey.ca/f/LanguageSelection.aspx?s=442ca660-fcf1-47c0-95a9-59707d6fd709

Hourly Data Report for December 31, 2020

MUSKOKA
ONTARIO
Current Station Operator: NAVCAN

44°58'29.000" N
79°18'12.000" W
281.90 m
6115529
71532
YQA

Download Data

Hourly Data (December 2020)
Hourly Data Report for December 31, 2020
TIME
LST
Temp Definition
°C
Dew Point Definition
°C
Rel Hum Definition
%
Precip. Amount Definition
mm

Wind Dir Definition
10's deg

Wind Spd Definition
km/h
Visibility Definition
km
Stn Press Definition
kPa
Hmdx Definition


Wind Chill Definition


Weather Definition


00:00 -0.2 -2.4 85 220.0 28 24 11.3 97.29   -6 Snow
01:00 0.2 -3.7 75 LegendMM 27 18 16.1 97.40     LegendNANA
02:00 -0.4 -3.8 78 LegendMM 27 15 16.1 97.52   -5 Snow
03:00 -0.1 -4.2 74 LegendMM 28 24 16.1 97.65   -6 Snow
04:00 -0.1 -5.1 69 LegendMM 27 13 16.1 97.76   -4 Snow
05:00 -0.2 -5.0 70 LegendMM 28 18 16.1 97.83   -5 LegendNANA
06:00 -0.5 -3.9 78 LegendMM 28 18 6.4 97.97   -6 Snow
07:00 -1.0 -2.7 88 LegendMM 30 21 16.1 98.09   -7 LegendNANA
08:00 -1.7 -4.5 81 LegendMM 32 15 16.1 98.25   -7 LegendNANA
09:00 -1.5 -5.6 74 LegendMM 31 24 16.1 98.41   -8 LegendNANA
10:00 -1.4 -6.4 69 LegendMM 30 18 16.1 98.57   -7 LegendNANA
11:00 -1.8 -7.1 67 LegendMM 33 18 16.1 98.61   -7 LegendNANA
12:00 -1.4 -6.5 68 LegendMM 31 15 16.1 98.62   -6 LegendNANA
13:00 -1.4 -6.2 70 LegendMM 31 11 16.1 98.70   -5 LegendNANA
14:00 -1.2 -5.6 72 152.4 26 5 16.1 98.78   -3 LegendNANA
15:00 -1.1 -5.2 74 0.0 29 5 16.1 98.87   -3 LegendNANA
16:00 -1.1 -5.2 74 0.0 30 5 16.1 98.95   -3 LegendNANA
17:00 -1.6 -4.6 80 0.0   0 16.1 99.03     LegendNANA
18:00 -1.8 -4.6 81 0.0   0 16.1 99.10     LegendNANA
19:00 -2.5 -4.4 87 0.0   0 16.1 99.17     LegendNANA
20:00 -2.8 -4.2 90 0.0 17 4 16.1 99.24   -4 LegendNANA
21:00 -2.4 -4.1 88 0.0 20 8 16.1 99.35   -6 LegendNANA
22:00 -2.0 -3.7 88 0.0 20 5 16.1 99.42   -4 LegendNANA
23:00 -2.4 -3.8 90 0.0   0 16.1 99.43     LegendNANA

Notes on Data Quality.

Legend

  • E = Estimated
  • M = Missing
  • NA = Not Available*
  • [empty] = Indicates an unobserved value
Date modified: